Flag for U.S.A. Weather past 2 weeks in Midland, Texas, U.S.A.

Now
64 °F

Fog.


Feels Like: 64 °F
Forecast: 57 / 76 °F
Wind: 3 mph from East

Location: Midland - Midland Airpark

Current Time: May 22, 2015 at 1:09:28 PM

Latest Report: May 22, 2015 at 12:35 PM


Visibility: 2 mi

Pressure: 30.12 "Hg

Humidity: 100%

Dew point: 64 °F

Location of MidlandLocation

Historic Weather in Midland — Graph

°F

Midland temperature yesterday

Maximum temperature yesterday: 58 °F (at 11:55 PM)
Minimum temperature yesterday: 52 °F (at 7:35 AM)
Average temperature yesterday: 55 °F

Past Weeks' High & Low Weather Summary

 TemperatureHumidityPressure
High93 °F (May 8, 4:15 PM)100% (May 12, 8:55 AM)30.31 "Hg (May 12, 8:55 AM)
Low52 °F (May 21, 7:35 AM)8% (May 10, 4:55 PM)29.75 "Hg (May 8, 7:35 PM)
Average71 °F59%29.99 "Hg
* Reported May 7 12:15 PM — May 22 12:15 PM, Midland, Weather by CustomWeather, © 2015

Note: Actual official high and low records may vary slightly from our data, if they occured in-between our weather recording intervals... More about our weather records

Advertising

Midland weather history for previous 24 hours

 ConditionsComfort  
Time TempWeatherWind HumidityBarometerVisibility
12:15 PM
Fri, May 22
64 °FFog.6 mph100%30.12 "Hg1 mi
11:55 AM64 °FFog.5 mph100%30.12 "Hg2 mi
11:35 AM63 °FFog.6 mph100%30.12 "Hg2 mi
11:15 AM63 °FFog.3 mph100%30.12 "Hg2 mi
10:55 AM62 °FLight rain. Low clouds.No wind100%30.12 "Hg3 mi
10:35 AM62 °FFog.No wind100%30.11 "Hg3 mi
10:15 AM62 °FLight rain. Low clouds.5 mph100%30.11 "Hg2 mi
9:55 AM61 °FFog.No wind100%30.11 "Hg3 mi
9:35 AM60 °FLight rain. Low clouds.3 mph100%30.11 "Hg2 mi
9:15 AM60 °FLight rain. Low clouds.3 mph100%30.11 "Hg4 mi
8:55 AM60 °FRain. Low clouds.5 mph100%30.11 "Hg2 mi
8:35 AM60 °FLight rain. Low clouds.3 mph100%30.11 "Hg2 mi
8:15 AM60 °FHeavy rain. Low clouds.3 mph100%30.11 "Hg2 mi
7:55 AM59 °FFog.3 mph100%30.10 "Hg2 mi
7:35 AM59 °FFog.5 mph100%30.10 "Hg2 mi
7:15 AM59 °FLight rain. Low clouds.3 mph100%30.10 "Hg3 mi
6:55 AM59 °FRain. Low clouds.5 mph100%30.09 "Hg2 mi
6:15 AM59 °FDrizzle. Low clouds.No wind100%30.09 "Hg2 mi
5:55 AM59 °FDrizzle. Low clouds.5 mph100%30.09 "Hg2 mi
5:35 AM59 °FLight rain. Low clouds.3 mph100%30.09 "Hg1 mi
5:15 AM59 °FFog.No wind100%30.08 "Hg1 mi
4:55 AM58 °FFog.3 mph100%30.08 "Hg2 mi
4:15 AM58 °FLight rain. Low clouds.5 mph100%30.08 "Hg2 mi
3:55 AM58 °FDrizzle. Low clouds.5 mph100%30.09 "Hg4 mi
3:35 AM58 °FDrizzle. Low clouds.6 mph100%30.09 "Hg3 mi
3:15 AM58 °FDrizzle. Low clouds.6 mph100%30.09 "Hg3 mi
2:55 AM58 °FRain. Low clouds.5 mph100%30.10 "Hg5 mi
2:35 AM58 °FDrizzle. Low clouds.7 mph100%30.12 "Hg5 mi
2:15 AM58 °FRain. Low clouds.7 mph100%30.12 "Hg7 mi
1:55 AM58 °FLow clouds.3 mph100%30.14 "Hg7 mi
1:35 AM58 °FLow clouds.5 mph100%30.13 "Hg7 mi
1:15 AM58 °FLow clouds.10 mph100%30.12 "Hg7 mi
12:55 AM58 °FFog.12 mph100%30.12 "Hg5 mi
12:35 AM58 °FFog.9 mph100%30.12 "Hg5 mi
12:15 AM58 °FLow clouds.9 mph100%30.11 "Hg7 mi
11:55 PM
Thu, May 21
58 °FFog.8 mph100%30.12 "Hg4 mi
11:35 PM57 °FFog.7 mph100%30.12 "Hg4 mi
11:15 PM57 °FDrizzle. Low clouds.9 mph100%30.12 "Hg2 mi
10:55 PM57 °FRain. Low clouds.9 mph100%30.13 "Hg2 mi
10:35 PM56 °FDrizzle. Low clouds.10 mph100%30.12 "Hg3 mi
10:15 PM56 °FRain. Low clouds.10 mph100%30.12 "Hg2 mi
9:55 PM56 °FFog.8 mph100%30.13 "Hg2 mi
9:35 PM56 °FFog.9 mph100%30.12 "Hg3 mi
9:15 PM56 °FFog.10 mph89%30.12 "Hg3 mi
8:55 PM57 °FOvercast.9 mph84%30.13 "Hg7 mi
8:35 PM57 °FOvercast.7 mph85%30.13 "Hg7 mi
8:15 PM57 °FOvercast.9 mph84%30.11 "Hg10 mi
7:55 PM57 °FOvercast.10 mph84%30.12 "Hg7 mi
7:35 PM56 °FOvercast.9 mph86%30.12 "Hg5 mi
7:15 PM57 °FOvercast.10 mph85%30.14 "Hg10 mi
6:55 PM57 °FOvercast.12 mph84%30.14 "Hg7 mi
6:35 PM56 °FOvercast.8 mph86%30.14 "Hg10 mi
6:15 PM56 °FOvercast.10 mph86%30.14 "Hg10 mi
5:55 PM56 °FOvercast.13 mph85%30.14 "Hg7 mi
5:35 PM56 °FOvercast.8 mph86%30.14 "Hg7 mi
5:15 PM56 °FThundershowers. Overcast.8 mph87%30.15 "Hg7 mi
4:15 PM57 °FOvercast.13 mph78%30.18 "Hg10 mi
3:55 PM57 °FOvercast.14 mph77%30.18 "Hg7 mi
3:35 PM57 °FOvercast.16 mph77%30.20 "Hg10 mi
3:15 PM57 °FOvercast.16 mph76%30.20 "Hg7 mi
2:55 PM57 °FOvercast.14 mph77%30.21 "Hg7 mi
2:35 PM56 °FLow clouds.13 mph78%30.22 "Hg10 mi
2:15 PM56 °FLow clouds.12 mph80%30.23 "Hg10 mi
1:55 PM56 °FLow clouds.14 mph78%30.22 "Hg10 mi
1:35 PM55 °FLow clouds.12 mph80%30.23 "Hg7 mi
1:15 PM55 °FLow clouds.15 mph81%30.23 "Hg7 mi
Weather by CustomWeather, © 2015

See weather overviewHow to use our weather pages